Regional Weather Roundup
Issued by NWS

Home | Current Version | Previous Version | Graphics & Text | Print | Product List | Glossary On
Versions: 1 2 3 4 5 6 7 8 9 10 11 12 13 14 15 16 17 18 19 20 21 22 23 24 25 26 27 28 29 30 31 32 33 34 35 36 37 38 39 40 41 42 43 44 45 46 47 48 49 50
000
ASUS43 KLMK 011202
RWRKY
KENTUCKY REGIONAL WEATHER ROUNDUP
NATIONAL WEATHER SERVICE LOUISVILLE KY
800 AM EDT MON SEP 01 2014

NOTE "FAIR" INDICATES FEW OR NO CLOUDS BELOW 12,000 FEET
WITH NO SIGNIFICANT WEATHER AND/OR OBSTRUCTIONS TO VISIBILITY.

KYZ001>023-026-027-061>063-070>075-011300-
WESTERN AND SOUTH CENTRAL KENTUCKY

CITY           SKY/WX    TMP DP  RH WIND       PRES   REMARKS
PADUCAH        MOCLDY    77  73  87 SW13      29.99R
HENDERSON      MOCLDY    73  70  88 S7        29.98S
OWENSBORO      PTCLDY    73  73 100 S7        30.01
HOPKINSVILLE   MOCLDY    74  74 100 S10       30.04R
BOWLING GREEN  MOCLDY    74  71  91 S6        30.05R
GLASGOW        MOCLDY    72  72 100 S5        30.07R FOG
$$

KYZ024-025-028>034-038-045-046-053-011300-
NORTH CENTRAL KENTUCKY

CITY           SKY/WX    TMP DP  RH WIND       PRES   REMARKS
LOUISVILLE/SDF MOCLDY    76  72  87 VRB7      30.02R
LOUISVILLE/LOU CLOUDY    75  72  90 VRB5      30.02R
FORT KNOX      MOCLDY    73  73 100 S8        30.02S
$$

KYZ035>037-039>044-047>052-055>060-089>105-011300-
NORTHEAST KENTUCKY

CITY           SKY/WX    TMP DP  RH WIND       PRES   REMARKS
LEXINGTON      CLOUDY    75  71  87 SW10      30.06S
COVINGTON      CLOUDY    74  71  91 S7        30.01S
FRANKFORT      CLOUDY    74  71  91 S10       30.03S
$$

KYZ054-064>069-076>088-106>120-011300-
SOUTHEAST KENTUCKY

CITY           SKY/WX    TMP DP  RH WIND       PRES   REMARKS
JACKSON        CLOUDY    71  69  93 VRB5      30.12R
LONDON         CLOUDY    73  67  81 S6        30.12S
SOMERSET       PTCLDY    70  70 100 S3        30.12R
MIDDLESBORO    CLOUDY    68  67  99 CALM      30.15R
MONTICELLO     SUNNY     74  71  90 CALM      30.12R
$$



USA.gov is the U.S. government's official web portal to all federal, state and local government web resources and services.